Find Starlink 11505

NORAD ID: 62469 Int'l Des: 2024-254 Owner: SPXS Country: US Constellation: starlink operational
LEOCIRCULAR

Live-Position

3D-Globus wird geladen...

Über Starlink 11505

Beschreibung wird geladen...

Nächste Überflüge

Passes for default location (London). Set your location on the main map for personalized predictions.

Höhenverlauf

Loading altitude history...

Zweizeiliger Elementsatz

1 62469U 24254H 26122.42338944 .00181698 00000-0 13873-2 0 9991
2 62469 43.0020 258.9572 0002343 267.8761 92.1838 15.70864048 77845
Epoch: 2. Mai 2026 • Age: 6 hours

Aktueller Status

Höhe 357.9 km
Geschwindigkeit 7.70 km/s
Subsatellitenpunkt -12.38°S, 140.5°E
Startdatum 31. Dez. 2024
Alter 1.3 years
Typ internet

Technische Details

Klassifizierung Payload
Masse 960.00 kg
Trockenmasse 910.00 kg
Gesamtmasse 960.00 kg
Länge 0.30 m
Durchmesser 4.10 m
Spannweite 29.00 m
Form Box + pan
Hersteller SPXS
Bus-Typ Starlink V2MD
Phasenstatus In Orbit
Besitzer/Staat SPXS/US

Most Searched